パンスターズ彗星

C/2015 LC2 ( PanSTARRS )

English version
Home page
Updated on October 8, 2017

---------------------------------------------------------------------

・ プロフィール

発見日 2015年6月7日
発見光度 19.9等
発見者 Pan-STARRS 1 telescope (Haleakala)

・ 写真集

・ 軌道要素

Epoch 2015 May 18.0 TT = JDT 2457160.5
T 2015 May 1.59249 TT                                   MPCW
q   5.8905304            (2000.0)            P               Q
z  -0.0003304      Peri.  341.82470     -0.67449320     -0.26847891
 +/-0.0000015      Node   223.56560     -0.49039774     -0.53341072
e   1.0019460      Incl.   93.71811     -0.55187769     +0.80211724
From 226 observations 2015 June 7-2017 Mar. 5, mean residual 0".5.

・ 光度変化

        m1 = -10.2 + 5 logΔ + 30 log r(t - 550)

---------------------------------------------------------------------

軌道要素はM.P.E.C. 2017-E59に掲載されたものです。
光度グラフはComet for Windowsで作成したものです。

---------------------------------------------------------------------

Copyright(C) Seiichi Yoshida (comet@aerith.net). All rights reserved.